Regional Weather Roundup
Issued by NWS

Home | Current Version | Previous Version | Text Only | Print | Product List | Glossary On
Versions: 1 2 3 4 5 6 7 8 9 10 11 12 13 14 15 16 17 18 19 20 21 22 23 24 25 26 27 28 29 30 31 32 33 34 35 36 37 38 39 40 41 42 43 44 45 46 47 48 49 50
000
ASUS43 KIND 310909
RWRIN

WEATHER ROUNDUP FOR INDIANA
NATIONAL WEATHER SERVICE INDIANAPOLIS IN
500 AM EDT FRI OCT 31 2014

NOTE: "FAIR" INDICATES FEW OR NO CLOUDS BELOW 12,000 FEET WITH NO
SIGNIFICANT WEATHER AND/OR OBSTRUCTIONS TO VISIBILITY.

* - STATION DOES NOT REPORT WEATHER SUCH AS PRECIPITATION OR FOG.

+ - STATION NOT QUALITY CONTROLLED BY THE NATIONAL WEATHER SERVICE.
    USE DATA WITH CAUTION...ESPECIALLY DEWPOINT AND RELATIVE
    HUMIDITY OBSERVATIONS.

INZ001>003-010>013-019-020-311000-
NORTHWEST INDIANA

CITY           SKY/WX    TMP DP  RH WIND       PRES   REMARKS
GARY /AIRPORT/ LGT RAIN  46  38  73 NW21      30.02S
KNOX *+        CLOUDY    44  37  76 W8        29.97F
LA PORTE +     LGT RAIN  46  41  85 W6        29.98F
MICHIGAN CITY+ RAIN      45  37  76 NW12G18   29.99S
MONTICELLO +   MIX PCPN  43  39  85 W5        29.99F
RENSSELAER +   CLOUDY    45  41  87 W6        30.00F
VALPARAISO     LGT RAIN  44  39  82 W8        29.99F

$$

LMZ046-743>745-311000-
SOUTHERN LAKE MICHIGAN

STATION/POSITION TIME  TEMP WIND        PRES
                       AIR  DIR/SP/G
                 (UTC) (F)  (DEG/KT/KT) (MB)
MICHIGAN CITY    0900   47  300/ 24/ 28   N/A

$$

INZ004-005-014>016-021>024-311000-
NORTH CENTRAL INDIANA

CITY           SKY/WX    TMP DP  RH WIND       PRES   REMARKS
GOSHEN         CLOUDY    44  38  79 SW6       29.95F
LOGANSPORT +   CLOUDY    41  36  81 W6        29.99F
PERU/GRISSOM   CLOUDY    41  41  99 W6        29.98F
ROCHESTER +    CLOUDY    45  37  76 W5        29.97F
SOUTH BEND     LGT RAIN  44  39  82 W5        29.97F
WARSAW +       CLOUDY    41  36  81 W5        29.96F

$$

INZ006>009-017-018-025>027-311000-
NORTHEAST INDIANA

CITY           SKY/WX    TMP DP  RH WIND       PRES   REMARKS
ANGOLA *+        N/A     43  37  81 SW3       29.93F
AUBURN +       MOCLDY    43  34  70 SW5       29.96F
FORT WAYNE     MOCLDY    42  37  82 SW5       29.98F
HUNTINGTON +   MOCLDY   N/A N/A N/A W3        29.97F

$$

INZ028-029-035-036-043>045-051>053-311000-
WEST CENTRAL INDIANA

CITY           SKY/WX    TMP DP  RH WIND       PRES   REMARKS
GREENCASTLE +  MOCLDY    43  37  81 CALM      30.02S
LAFAYETTE      CLOUDY    42  39  89 W5        30.01F
TERRE HAUTE    CLOUDY    44  42  93 CALM      30.03F

$$

INZ030>032-037>040-046>048-054>057-064-065-311000-
CENTRAL INDIANA

CITY           SKY/WX    TMP DP  RH WIND       PRES   REMARKS
CP ATTERBURY + CLOUDY    43  41  93 CALM      30.01S
FRANKFORT +    MOCLDY    41  41 100 SW5       30.02F
INDIANAPOLIS   CLOUDY    43  37  79 NW7       30.00F
-EAGLE CREEK   CLOUDY    46  38  73 NW7       30.00F
KOKOMO *+      CLOUDY    43  36  75 W6        30.00F
MARION +       MOCLDY    41  36  83 W6        29.99S
MT COMFORT *+  CLOUDY    41  36  81 W3        30.00F
SHELBYVILLE    CLOUDY    46  41  82 CALM      30.00S
ZIONSVILLE +   CLOUDY    44  36  74 NW3       30.00F

$$

INZ033-034-041-042-049-050-058-059-311000-
EAST CENTRAL INDIANA

CITY           SKY/WX    TMP DP  RH WIND       PRES   REMARKS
MUNCIE         CLOUDY    43  36  76 SW5       29.98F

$$

INZ060-061-067>069-081>083-085>088-311000-
SOUTHWEST INDIANA

CITY           SKY/WX    TMP DP  RH WIND       PRES   REMARKS
EVANSVILLE     CLOUDY    49  43  80 N7        30.03S
HUNTINGBURG *+ CLOUDY    46  39  76 NE6       30.02S
WASHINGTON +   CLOUDY    46  46 100 CALM      30.01F

$$

INZ062-063-066-070>080-084-089>092-311000-
SOUTH CENTRAL AND SOUTHEAST INDIANA

CITY           SKY/WX    TMP DP  RH WIND       PRES   REMARKS
BLOOMINGTON    PTCLDY    44  41  89 CALM      30.01S

$$




USA.gov is the U.S. government's official web portal to all federal, state and local government web resources and services.